| time (UTC) | temp C | wind direction | speed KPH | gust KPH | rain 1hr cm | rain 24hr cm | rain mn cm | humidity % | barometer mb |
| 20260903231040 | 14 | 351 | 1.6 | 9.7 | 0.00 | 0.05 | 0.00 | 92 | 1006.4 |
| 20260903230540 | 14 | 191 | 1.6 | 9.7 | 0.00 | 0.05 | 0.00 | 92 | 1006.4 |
| 20260903230041 | 14 | 302 | 1.6 | 11.3 | 0.00 | 0.05 | 0.00 | 92 | 1006.3 |
| 20260903225540 | 14 | 272 | 3.2 | 6.4 | 0.00 | 0.05 | 0.00 | 92 | 1006.3 |
| 20260903225039 | 14 | 246 | 1.6 | 11.3 | 0.00 | 0.05 | 0.00 | 92 | 1006.4 |
| 20260903224539 | 14 | 136 | 1.6 | 11.3 | 0.00 | 0.05 | 0.00 | 92 | 1006.2 |
| 20260903224042 | 14 | 233 | 1.6 | 8.0 | 0.00 | 0.05 | 0.00 | 92 | 1006.3 |
| 20260903223539 | 14 | 220 | 3.2 | 12.9 | 0.00 | 0.05 | 0.00 | 92 | 1006.3 |
| 20260903223044 | 14 | 232 | 4.8 | 12.9 | 0.00 | 0.05 | 0.00 | 93 | 1006.2 |
| 20260903222537 | 14 | 319 | 1.6 | 9.7 | 0.00 | 0.05 | 0.00 | 92 | 1006.3 |
| 20260903222037 | 14 | 194 | 1.6 | 12.9 | 0.00 | 0.05 | 0.00 | 92 | 1006.5 |
| 20260903221539 | 14 | 302 | 3.2 | 12.9 | 0.00 | 0.05 | 0.00 | 92 | 1006.5 |
| 20260903221036 | 14 | 290 | 3.2 | 9.7 | 0.00 | 0.05 | 0.00 | 92 | 1006.5 |
| 20260903220537 | 14 | 285 | 1.6 | 8.0 | 0.00 | 0.05 | 0.00 | 92 | 1006.4 |
| 20260903220056 | 14 | 192 | 3.2 | 14.5 | 0.00 | 0.05 | 0.00 | 92 | 1006.6 |
| 20260903215537 | 14 | 263 | 4.8 | 14.5 | 0.00 | 0.05 | 0.05 | 92 | 1006.6 |
| 20260903215033 | 14 | 245 | 3.2 | 14.5 | 0.00 | 0.05 | 0.05 | 92 | 1006.6 |
| 20260903214534 | 14 | 317 | 1.6 | 14.5 | 0.00 | 0.05 | 0.05 | 92 | 1006.5 |
| 20260903214033 | 14 | 336 | 1.6 | 8.0 | 0.00 | 0.05 | 0.05 | 92 | 1006.5 |
| 20260903213532 | 14 | 149 | 3.2 | 11.3 | 0.00 | 0.05 | 0.05 | 92 | 1006.4 |
| 20260903213033 | 14 | 270 | 3.2 | 11.3 | 0.00 | 0.05 | 0.05 | 92 | 1006.5 |
| 20260903212533 | 14 | 323 | 3.2 | 17.7 | 0.00 | 0.05 | 0.05 | 92 | 1006.4 |
| 20260903212034 | 14 | 195 | 1.6 | 17.7 | 0.00 | 0.05 | 0.05 | 92 | 1006.4 |
| 20260903211532 | 14 | 221 | 3.2 | 16.1 | 0.00 | 0.05 | 0.05 | 92 | 1006.4 |
| 20260903211031 | 15 | 185 | 3.2 | 16.1 | 0.00 | 0.05 | 0.05 | 92 | 1006.3 |
| 20260903210536 | 15 | 229 | 3.2 | 16.1 | 0.03 | 0.05 | 0.05 | 92 | 1006.4 |
| 20260903210035 | 15 | 213 | 4.8 | 14.5 | 0.03 | 0.05 | 0.05 | 92 | 1006.5 |
| 20260903205531 | 15 | 204 | 3.2 | 11.3 | 0.03 | 0.05 | 0.05 | 92 | 1006.4 |
| 20260903205031 | 15 | 234 | 1.6 | 11.3 | 0.03 | 0.05 | 0.05 | 92 | 1006.4 |
| 20260903204531 | 15 | 286 | 3.2 | 12.9 | 0.03 | 0.05 | 0.05 | 92 | 1006.4 |
| 20260903204032 | 15 | 267 | 4.8 | 12.9 | 0.03 | 0.05 | 0.05 | 92 | 1006.4 |
| 20260903203533 | 15 | 186 | 3.2 | 16.1 | 0.03 | 0.05 | 0.05 | 92 | 1006.4 |
| 20260903203030 | 15 | 229 | 3.2 | 16.1 | 0.03 | 0.05 | 0.05 | 92 | 1006.3 |
| 20260903202534 | 15 | 196 | 4.8 | 17.7 | 0.03 | 0.05 | 0.05 | 92 | 1006.3 |
| 20260903202032 | 15 | 169 | 3.2 | 16.1 | 0.03 | 0.05 | 0.05 | 93 | 1006.2 |
| 20260903201529 | 15 | 345 | 3.2 | 19.3 | 0.03 | 0.05 | 0.05 | 93 | 1006.3 |
| 20260903201028 | 15 | 288 | 3.2 | 19.3 | 0.03 | 0.05 | 0.05 | 93 | 1006.3 |
| 20260903200528 | 15 | 327 | 4.8 | 12.9 | 0.00 | 0.05 | 0.05 | 93 | 1006.3 |
| 20260903200041 | 15 | 298 | 3.2 | 12.9 | 0.00 | 0.05 | 0.05 | 93 | 1006.3 |
| 20260903195529 | 15 | 265 | 1.6 | 12.9 | 0.00 | 0.05 | 0.05 | 93 | 1006.3 |
| 20260903195028 | 15 | 279 | 3.2 | 14.5 | 0.00 | 0.05 | 0.05 | 93 | 1006.3 |
| 20260903194540 | 15 | 227 | 3.2 | 14.5 | 0.00 | 0.05 | 0.05 | 93 | 1006.3 |
| 20260903194027 | 15 | 303 | 4.8 | 14.5 | 0.00 | 0.05 | 0.05 | 93 | 1006.4 |
| 20260903193529 | 15 | 287 | 4.8 | 17.7 | 0.00 | 0.05 | 0.05 | 93 | 1006.3 |
| 20260903193027 | 15 | 300 | 6.4 | 17.7 | 0.00 | 0.05 | 0.05 | 93 | 1006.4 |
| 20260903192530 | 15 | 231 | 3.2 | 16.1 | 0.00 | 0.05 | 0.05 | 93 | 1006.4 |
| 20260903192026 | 15 | 236 | 4.8 | 12.9 | 0.00 | 0.05 | 0.05 | 93 | 1006.4 |
| 20260903191526 | 15 | 189 | 3.2 | 17.7 | 0.00 | 0.05 | 0.05 | 93 | 1006.5 |
| 20260903191027 | 15 | 283 | 1.6 | 17.7 | 0.00 | 0.05 | 0.05 | 93 | 1006.4 |
| 20260903190528 | 15 | 98 | 3.2 | 14.5 | 0.00 | 0.05 | 0.05 | 93 | 1006.3 |
| 20260903190027 | 15 | 161 | 3.2 | 14.5 | 0.00 | 0.05 | 0.05 | 93 | 1006.2 |
| 20260903185527 | 15 | 200 | 3.2 | 12.9 | 0.00 | 0.05 | 0.05 | 93 | 1006.2 |
| 20260903185025 | 16 | 216 | 3.2 | 14.5 | 0.00 | 0.05 | 0.05 | 93 | 1006.1 |
| 20260903184525 | 16 | 272 | 4.8 | 17.7 | 0.00 | 0.05 | 0.05 | 93 | 1006.0 |
| 20260903184024 | 16 | 316 | 3.2 | 19.3 | 0.00 | 0.05 | 0.05 | 93 | 1006.1 |
| 20260903183525 | 16 | 307 | 3.2 | 14.5 | 0.00 | 0.05 | 0.05 | 94 | 1006.1 |
| 20260903183037 | 16 | 286 | 4.8 | 14.5 | 0.00 | 0.05 | 0.05 | 94 | 1006.1 |
| 20260903182529 | 16 | 292 | 3.2 | 12.9 | 0.00 | 0.05 | 0.05 | 94 | 1006.0 |
| 20260903182025 | 16 | 268 | 4.8 | 12.9 | 0.00 | 0.05 | 0.05 | 94 | 1006.1 |
| 20260903181527 | 16 | 333 | 3.2 | 11.3 | 0.00 | 0.05 | 0.05 | 94 | 1006.1 |
| 20260903181023 | 16 | 290 | 3.2 | 16.1 | 0.00 | 0.05 | 0.05 | 94 | 1006.0 |
| 20260903180523 | 16 | 167 | 3.2 | 20.9 | 0.00 | 0.05 | 0.05 | 94 | 1005.9 |
| 20260903180033 | 16 | 229 | 3.2 | 20.9 | 0.00 | 0.05 | 0.05 | 94 | 1005.9 |
| 20260903175522 | 16 | 311 | 3.2 | 14.5 | 0.00 | 0.05 | 0.05 | 94 | 1005.9 |
| 20260903175023 | 16 | 178 | 1.6 | 9.7 | 0.00 | 0.05 | 0.05 | 94 | 1005.8 |
| 20260903174525 | 16 | 283 | 1.6 | 14.5 | 0.00 | 0.05 | 0.05 | 94 | 1005.8 |
| 20260903174023 | 16 | 266 | 4.8 | 14.5 | 0.00 | 0.05 | 0.05 | 94 | 1005.8 |
| 20260903173522 | 16 | 252 | 1.6 | 11.3 | 0.00 | 0.05 | 0.05 | 94 | 1005.7 |
| 20260903173023 | 16 | 178 | 3.2 | 11.3 | 0.00 | 0.05 | 0.05 | 94 | 1005.5 |
| 20260903172522 | 16 | 171 | 3.2 | 14.5 | 0.00 | 0.05 | 0.05 | 94 | 1005.4 |
| 20260903172022 | 16 | 292 | 3.2 | 16.1 | 0.00 | 0.05 | 0.05 | 94 | 1005.4 |
| 20260903171526 | 16 | 304 | 4.8 | 16.1 | 0.00 | 0.05 | 0.05 | 94 | 1005.4 |
| 20260903171022 | 17 | 232 | 3.2 | 17.7 | 0.00 | 0.05 | 0.05 | 94 | 1005.4 |
| 20260903170521 | 17 | 213 | 3.2 | 17.7 | 0.00 | 0.05 | 0.05 | 94 | 1005.4 |
| 20260903170023 | 17 | 292 | 3.2 | 8.0 | 0.00 | 0.05 | 0.05 | 95 | 1005.2 |
| 20260903165521 | 17 | 176 | 1.6 | 22.5 | 0.00 | 0.05 | 0.05 | 95 | 1005.3 |
| 20260903165020 | 17 | 227 | 4.8 | 22.5 | 0.00 | 0.05 | 0.05 | 95 | 1005.2 |
| 20260903164520 | 17 | 230 | 8.0 | 20.9 | 0.00 | 0.05 | 0.05 | 95 | 1005.1 |
| 20260903164022 | 17 | 281 | 3.2 | 14.5 | 0.00 | 0.05 | 0.05 | 95 | 1005.2 |
| 20260903163519 | 17 | 261 | 3.2 | 12.9 | 0.00 | 0.05 | 0.05 | 96 | 1005.1 |
| 20260903163020 | 17 | 227 | 3.2 | 16.1 | 0.00 | 0.05 | 0.05 | 96 | 1005.0 |
| 20260903162520 | 17 | 243 | 4.8 | 17.7 | 0.00 | 0.05 | 0.05 | 96 | 1005.0 |
| 20260903162019 | 17 | 246 | 1.6 | 17.7 | 0.00 | 0.05 | 0.05 | 96 | 1004.9 |
| 20260903161527 | 17 | 252 | 4.8 | 14.5 | 0.00 | 0.05 | 0.05 | 96 | 1005.0 |
| 20260903161019 | 17 | 143 | 3.2 | 12.9 | 0.00 | 0.05 | 0.05 | 96 | 1004.9 |
| 20260903160519 | 17 | 198 | 3.2 | 14.5 | 0.00 | 0.05 | 0.05 | 96 | 1004.8 |
| 20260903160021 | 17 | 293 | 3.2 | 14.5 | 0.00 | 0.05 | 0.05 | 96 | 1004.9 |
| 20260903155520 | 17 | 200 | 3.2 | 12.9 | 0.00 | 0.05 | 0.05 | 96 | 1004.9 |
| 20260903155021 | 17 | 306 | 3.2 | 9.7 | 0.00 | 0.05 | 0.05 | 96 | 1004.9 |
| 20260903154619 | 17 | 214 | 3.2 | 11.3 | 0.00 | 0.05 | 0.05 | 96 | 1004.9 |
| 20260903154021 | 17 | 217 | 1.6 | 12.9 | 0.00 | 0.05 | 0.05 | 96 | 1005.0 |
| 20260903153518 | 17 | 257 | 3.2 | 12.9 | 0.00 | 0.05 | 0.05 | 96 | 1005.0 |
| 20260903153017 | 17 | 304 | 3.2 | 12.9 | 0.00 | 0.05 | 0.05 | 97 | 1005.1 |
| 20260903152517 | 17 | 192 | 4.8 | 12.9 | 0.00 | 0.05 | 0.05 | 96 | 1005.0 |
| 20260903152020 | 17 | 278 | 1.6 | 9.7 | 0.00 | 0.05 | 0.05 | 96 | 1005.0 |
| 20260903151515 | 17 | 211 | 1.6 | 8.0 | 0.00 | 0.05 | 0.05 | 97 | 1005.0 |
| 20260903151015 | 17 | 186 | 1.6 | 8.0 | 0.00 | 0.05 | 0.05 | 97 | 1004.9 |
| 20260903150513 | 17 | 219 | 1.6 | 8.0 | 0.00 | 0.05 | 0.05 | 97 | 1005.1 |
| 20260903150016 | 17 | 292 | 1.6 | 9.7 | 0.00 | 0.05 | 0.05 | 97 | 1005.1 |
| 20260903145516 | 17 | 332 | 1.6 | 6.4 | 0.00 | 0.05 | 0.05 | 97 | 1005.2 |
| 20260903145014 | 17 | 248 | 0.0 | 3.2 | 0.00 | 0.05 | 0.05 | 97 | 1005.2 |
| 20260903144513 | 17 | 244 | 0.0 | 3.2 | 0.00 | 0.05 | 0.05 | 97 | 1005.1 |
| 20260903144014 | 17 | 244 | 0.0 | 1.6 | 0.00 | 0.05 | 0.05 | 97 | 1005.2 |
| 20260903143513 | 17 | 244 | 0.0 | 4.8 | 0.00 | 0.05 | 0.05 | 97 | 1005.2 |
| 20260903143012 | 17 | 244 | 1.6 | 4.8 | 0.00 | 0.05 | 0.05 | 97 | 1005.3 |
| 20260903142512 | 17 | 217 | 1.6 | 11.3 | 0.00 | 0.05 | 0.05 | 97 | 1005.3 |
| 20260903142016 | 17 | 296 | 3.2 | 14.5 | 0.00 | 0.05 | 0.05 | 97 | 1005.2 |
| 20260903141511 | 17 | 202 | 6.4 | 14.5 | 0.00 | 0.05 | 0.05 | 97 | 1005.2 |
| 20260903141011 | 17 | 202 | 3.2 | 11.3 | 0.00 | 0.05 | 0.05 | 97 | 1005.2 |
| 20260903140510 | 17 | 182 | 3.2 | 11.3 | 0.00 | 0.05 | 0.05 | 97 | 1005.2 |
| 20260903140014 | 17 | 185 | 0.0 | 4.8 | 0.00 | 0.05 | 0.05 | 97 | 1005.3 |
| 20260903135508 | 17 | 185 | 1.6 | 6.4 | 0.00 | 0.05 | 0.05 | 97 | 1005.5 |
| 20260903135007 | 17 | 219 | 1.6 | 6.4 | 0.00 | 0.05 | 0.05 | 97 | 1005.6 |
| 20260903134507 | 17 | 202 | 0.0 | 4.8 | 0.00 | 0.05 | 0.05 | 97 | 1005.7 |
| 20260903134007 | 17 | 203 | 1.6 | 4.8 | 0.00 | 0.05 | 0.05 | 97 | 1005.7 |
| 20260903133506 | 16 | 175 | 0.0 | 3.2 | 0.00 | 0.05 | 0.05 | 97 | 1005.6 |
| 20260903133005 | 16 | 175 | 0.0 | 1.6 | 0.00 | 0.05 | 0.05 | 97 | 1005.6 |
| 20260903132504 | 16 | 175 | 0.0 | 0.0 | 0.00 | 0.05 | 0.05 | 97 | 1005.9 |
| 20260903132003 | 16 | 175 | 0.0 | 1.6 | 0.00 | 0.05 | 0.05 | 97 | 1006.0 |
| 20260903131506 | 16 | 175 | 0.0 | 3.2 | 0.00 | 0.05 | 0.05 | 97 | 1006.0 |
| 20260903131002 | 16 | 175 | 0.0 | 3.2 | 0.00 | 0.05 | 0.05 | 96 | 1006.1 |
| 20260903130501 | 16 | 175 | 0.0 | 4.8 | 0.00 | 0.05 | 0.05 | 96 | 1006.1 |
| 20260903130003 | 16 | 175 | 1.6 | 4.8 | 0.00 | 0.05 | 0.05 | 96 | 1006.2 |
| 20260903125502 | 16 | 164 | 0.0 | 4.8 | 0.00 | 0.05 | 0.05 | 96 | 1006.2 |
| 20260903125002 | 16 | 164 | 0.0 | 3.2 | 0.00 | 0.05 | 0.05 | 96 | 1006.1 |
| 20260903124501 | 16 | 164 | 0.0 | 4.8 | 0.00 | 0.05 | 0.05 | 96 | 1006.0 |
| 20260903124001 | 16 | 164 | 1.6 | 4.8 | 0.00 | 0.05 | 0.05 | 96 | 1006.3 |
| 20260903123600 | 16 | 207 | 1.6 | 6.4 | 0.00 | 0.05 | 0.05 | 96 | 1006.4 |
| 20260903123100 | 16 | 201 | 3.2 | 6.4 | 0.00 | 0.05 | 0.05 | 96 | 1006.2 |
| 20260903122601 | 16 | 188 | 3.2 | 6.4 | 0.00 | 0.05 | 0.05 | 96 | 1006.0 |
| 20260903122058 | 16 | 173 | 0.0 | 4.8 | 0.00 | 0.05 | 0.05 | 97 | 1006.2 |
| 20260903121600 | 16 | 163 | 0.0 | 8.0 | 0.00 | 0.05 | 0.05 | 97 | 1006.6 |
| 20260903121056 | 16 | 186 | 3.2 | 8.0 | 0.00 | 0.05 | 0.05 | 96 | 1006.7 |
| 20260903120558 | 16 | 215 | 4.8 | 9.7 | 0.00 | 0.05 | 0.05 | 96 | 1006.7 |
| 20260903120056 | 16 | 182 | 1.6 | 8.0 | 0.00 | 0.05 | 0.05 | 96 | 1006.7 |
| 20260903115554 | 16 | 196 | 1.6 | 9.7 | 0.00 | 0.05 | 0.05 | 96 | 1006.8 |
| 20260903115054 | 16 | 198 | 4.8 | 9.7 | 0.00 | 0.05 | 0.05 | 96 | 1006.8 |
| 20260903114553 | 16 | 181 | 1.6 | 9.7 | 0.00 | 0.05 | 0.05 | 96 | 1006.9 |
| 20260903114052 | 16 | 161 | 3.2 | 9.7 | 0.00 | 0.05 | 0.05 | 96 | 1007.1 |
| 20260903113557 | 16 | 188 | 3.2 | 8.0 | 0.00 | 0.05 | 0.05 | 96 | 1007.0 |
| 20260903113052 | 16 | 176 | 3.2 | 9.7 | 0.00 | 0.05 | 0.05 | 96 | 1007.1 |
| 20260903112554 | 16 | 211 | 3.2 | 9.7 | 0.00 | 0.05 | 0.05 | 96 | 1007.1 |
| 20260903112050 | 16 | 165 | 4.8 | 11.3 | 0.00 | 0.05 | 0.05 | 96 | 1007.1 |
| 20260903111550 | 16 | 198 | 3.2 | 11.3 | 0.00 | 0.05 | 0.05 | 96 | 1007.2 |
| 20260903111050 | 16 | 167 | 4.8 | 11.3 | 0.00 | 0.05 | 0.05 | 96 | 1007.1 |
| 20260903110548 | 16 | 210 | 4.8 | 11.3 | 0.00 | 0.05 | 0.05 | 96 | 1007.2 |
| 20260903110048 | 16 | 188 | 3.2 | 6.4 | 0.00 | 0.05 | 0.05 | 96 | 1007.3 |
| 20260903105547 | 16 | 159 | 1.6 | 9.7 | 0.03 | 0.05 | 0.05 | 96 | 1007.4 |
| 20260903105047 | 16 | 197 | 3.2 | 9.7 | 0.03 | 0.05 | 0.05 | 96 | 1007.5 |
| 20260903104546 | 16 | 182 | 1.6 | 8.0 | 0.03 | 0.05 | 0.05 | 96 | 1007.5 |
| 20260903104045 | 16 | 161 | 3.2 | 9.7 | 0.03 | 0.05 | 0.05 | 96 | 1007.7 |
| 20260903103544 | 16 | 173 | 4.8 | 9.7 | 0.03 | 0.05 | 0.05 | 96 | 1007.7 |
| 20260903103045 | 15 | 183 | 4.8 | 11.3 | 0.03 | 0.05 | 0.05 | 96 | 1007.9 |
| 20260903102545 | 15 | 192 | 4.8 | 11.3 | 0.03 | 0.05 | 0.05 | 96 | 1007.9 |
| 20260903102042 | 15 | 158 | 4.8 | 11.3 | 0.03 | 0.05 | 0.05 | 96 | 1008.0 |
| 20260903101542 | 15 | 180 | 3.2 | 9.7 | 0.03 | 0.05 | 0.05 | 96 | 1008.0 |
| 20260903101041 | 15 | 209 | 4.8 | 11.3 | 0.03 | 0.05 | 0.05 | 96 | 1008.2 |
| 20260903100541 | 15 | 209 | 6.4 | 11.3 | 0.03 | 0.05 | 0.05 | 96 | 1008.2 |
| 20260903100040 | 15 | 153 | 3.2 | 16.1 | 0.03 | 0.05 | 0.05 | 96 | 1008.3 |
| 20260903095539 | 15 | 200 | 6.4 | 16.1 | 0.00 | 0.03 | 0.03 | 97 | 1008.4 |
| 20260903095040 | 15 | 218 | 3.2 | 12.9 | 0.00 | 0.03 | 0.03 | 97 | 1008.5 |
| 20260903094538 | 15 | 223 | 1.6 | 12.9 | 0.00 | 0.03 | 0.03 | 97 | 1008.4 |
| 20260903094038 | 15 | 196 | 4.8 | 11.3 | 0.00 | 0.03 | 0.03 | 97 | 1008.6 |
| 20260903093538 | 15 | 199 | 4.8 | 9.7 | 0.00 | 0.03 | 0.03 | 97 | 1008.7 |
| 20260903093035 | 15 | 257 | 3.2 | 9.7 | 0.00 | 0.03 | 0.03 | 97 | 1008.8 |
| 20260903092534 | 15 | 144 | 3.2 | 11.3 | 0.00 | 0.03 | 0.03 | 97 | 1008.9 |
| 20260903092032 | 15 | 186 | 3.2 | 11.3 | 0.00 | 0.03 | 0.03 | 97 | 1008.9 |
| 20260903091546 | 15 | 187 | 3.2 | 11.3 | 0.00 | 0.03 | 0.03 | 97 | 1009.1 |
| 20260903091031 | 15 | 192 | 4.8 | 14.5 | 0.00 | 0.03 | 0.03 | 97 | 1009.2 |
| 20260903090531 | 15 | 161 | 3.2 | 14.5 | 0.00 | 0.03 | 0.03 | 97 | 1009.2 |
| 20260903090030 | 15 | 204 | 1.6 | 11.3 | 0.00 | 0.03 | 0.03 | 97 | 1009.3 |
| 20260903085529 | 15 | 192 | 1.6 | 8.0 | 0.00 | 0.03 | 0.03 | 97 | 1009.3 |
| 20260903085028 | 15 | 175 | 1.6 | 8.0 | 0.00 | 0.03 | 0.03 | 97 | 1009.3 |
| 20260903084528 | 15 | 259 | 1.6 | 6.4 | 0.00 | 0.03 | 0.03 | 97 | 1009.5 |
| 20260903084027 | 15 | 185 | 0.0 | 8.0 | 0.00 | 0.03 | 0.03 | 97 | 1009.6 |
| 20260903083526 | 15 | 158 | 1.6 | 8.0 | 0.00 | 0.03 | 0.03 | 97 | 1009.6 |
| 20260903083027 | 15 | 171 | 3.2 | 9.7 | 0.00 | 0.03 | 0.03 | 97 | 1009.6 |
| 20260903082525 | 15 | 175 | 1.6 | 8.0 | 0.00 | 0.03 | 0.03 | 97 | 1009.7 |
| 20260903082023 | 15 | 205 | 1.6 | 8.0 | 0.00 | 0.03 | 0.03 | 97 | 1009.7 |
| 20260903081523 | 15 | 196 | 0.0 | 8.0 | 0.00 | 0.03 | 0.03 | 97 | 1009.8 |
| 20260903081022 | 15 | 203 | 1.6 | 6.4 | 0.00 | 0.03 | 0.03 | 97 | 1009.8 |
| 20260903080522 | 15 | 172 | 1.6 | 4.8 | 0.00 | 0.03 | 0.03 | 98 | 1009.8 |
| 20260903080021 | 15 | 186 | 0.0 | 4.8 | 0.00 | 0.03 | 0.03 | 98 | 1009.8 |
| 20260903075520 | 15 | 154 | 0.0 | 4.8 | 0.00 | 0.03 | 0.03 | 98 | 1009.9 |
| 20260903075022 | 15 | 245 | 0.0 | 4.8 | 0.00 | 0.03 | 0.03 | 98 | 1009.9 |
| 20260903074518 | 15 | 246 | 0.0 | 4.8 | 0.00 | 0.03 | 0.03 | 98 | 1010.0 |
| 20260903074017 | 15 | 232 | 0.0 | 4.8 | 0.00 | 0.03 | 0.03 | 98 | 1010.0 |
| 20260903073619 | 15 | 232 | 0.0 | 4.8 | 0.00 | 0.03 | 0.03 | 98 | 1010.0 |
| 20260903073018 | 15 | 178 | 1.6 | 4.8 | 0.00 | 0.03 | 0.03 | 97 | 1010.0 |
| 20260903072516 | 15 | 178 | 1.6 | 4.8 | 0.00 | 0.03 | 0.03 | 98 | 1010.0 |
| 20260903072015 | 15 | 178 | 0.0 | 3.2 | 0.00 | 0.03 | 0.03 | 98 | 1010.1 |
| 20260903071515 | 15 | 178 | 0.0 | 3.2 | 0.00 | 0.03 | 0.03 | 98 | 1010.1 |
| 20260903071014 | 15 | 178 | 0.0 | 3.2 | 0.00 | 0.03 | 0.03 | 98 | 1010.2 |
| 20260903070515 | 15 | 178 | 0.0 | 6.4 | 0.00 | 0.03 | 0.03 | 98 | 1010.2 |
| 20260903070013 | 14 | 179 | 1.6 | 6.4 | 0.00 | 0.03 | 0.03 | 98 | 1010.3 |
| 20260903065512 | 14 | 180 | 0.0 | 4.8 | 0.00 | 0.03 | 0.03 | 98 | 1010.3 |
| 20260903065012 | 14 | 180 | 0.0 | 4.8 | 0.00 | 0.03 | 0.03 | 98 | 1010.4 |
| 20260903064509 | 13 | 184 | 0.0 | 3.2 | 0.00 | 0.03 | 0.03 | 98 | 1010.5 |
| 20260903064007 | 13 | 305 | 0.0 | 0.0 | 0.00 | 0.03 | 0.03 | 98 | 1010.5 |
| 20260903063506 | 13 | 305 | 0.0 | 0.0 | 0.00 | 0.03 | 0.03 | 98 | 1010.6 |
| 20260903063005 | 13 | 305 | 0.0 | 0.0 | 0.00 | 0.03 | 0.03 | 98 | 1010.6 |
| 20260903062503 | 12 | 305 | 0.0 | 0.0 | 0.00 | 0.03 | 0.03 | 97 | 1010.7 |
| 20260903062001 | 12 | 305 | 0.0 | 0.0 | 0.00 | 0.03 | 0.03 | 98 | 1010.8 |
| 20260903061600 | 12 | 305 | 0.0 | 0.0 | 0.00 | 0.03 | 0.03 | 97 | 1010.8 |
| 20260903061103 | 12 | 305 | 0.0 | 0.0 | 0.00 | 0.03 | 0.03 | 97 | 1010.8 |
| 20260903060557 | 12 | 305 | 0.0 | 0.0 | 0.00 | 0.03 | 0.03 | 97 | 1010.9 |
| 20260903060056 | 12 | 305 | 0.0 | 0.0 | 0.00 | 0.03 | 0.03 | 97 | 1010.9 |
| 20260903055556 | 12 | 305 | 0.0 | 0.0 | 0.00 | 0.03 | 0.03 | 97 | 1011.0 |
| 20260903055054 | 12 | 305 | 0.0 | 0.0 | 0.00 | 0.03 | 0.03 | 97 | 1011.0 |
| 20260903054553 | 12 | 305 | 0.0 | 0.0 | 0.00 | 0.03 | 0.03 | 97 | 1011.1 |
| 20260903054054 | 11 | 305 | 0.0 | 0.0 | 0.00 | 0.03 | 0.03 | 97 | 1011.2 |
| 20260903053555 | 11 | 305 | 0.0 | 0.0 | 0.00 | 0.03 | 0.03 | 97 | 1011.2 |
| 20260903053055 | 11 | 305 | 0.0 | 0.0 | 0.00 | 0.03 | 0.03 | 97 | 1011.3 |
| 20260903052553 | 11 | 305 | 0.0 | 0.0 | 0.00 | 0.03 | 0.03 | 97 | 1011.4 |
| 20260903052052 | 11 | 305 | 0.0 | 0.0 | 0.00 | 0.03 | 0.03 | 97 | 1011.3 |
| 20260903051550 | 11 | 305 | 0.0 | 0.0 | 0.00 | 0.03 | 0.03 | 97 | 1011.4 |
| 20260903051050 | 11 | 305 | 0.0 | 0.0 | 0.00 | 0.03 | 0.03 | 97 | 1011.4 |
| 20260903050551 | 11 | 305 | 0.0 | 0.0 | 0.00 | 0.03 | 0.03 | 97 | 1011.4 |
| 20260903050046 | 11 | 305 | 0.0 | 0.0 | 0.00 | 0.03 | 0.03 | 97 | 1011.5 |
| 20260903045546 | 11 | 305 | 0.0 | 0.0 | 0.00 | 0.03 | 0.03 | 97 | 1011.5 |
| 20260903045047 | 11 | 305 | 0.0 | 0.0 | 0.00 | 0.03 | 0.03 | 97 | 1011.5 |
| 20260903044543 | 11 | 305 | 0.0 | 0.0 | 0.00 | 0.03 | 0.03 | 97 | 1011.6 |
| 20260903044047 | 11 | 305 | 0.0 | 0.0 | 0.00 | 0.03 | 0.03 | 97 | 1011.7 |
| 20260903043541 | 11 | 305 | 0.0 | 0.0 | 0.00 | 0.03 | 0.03 | 97 | 1011.8 |
| 20260903043053 | 11 | 305 | 0.0 | 0.0 | 0.00 | 0.03 | 0.03 | 97 | 1011.9 |
| 20260903042540 | 11 | 305 | 0.0 | 0.0 | 0.00 | 0.03 | 0.03 | 97 | 1012.0 |
| 20260903042039 | 11 | 305 | 0.0 | 0.0 | 0.00 | 0.03 | 0.03 | 97 | 1012.1 |
| 20260903041538 | 11 | 305 | 0.0 | 0.0 | 0.00 | 0.03 | 0.03 | 97 | 1012.1 |
| 20260903041037 | 11 | 305 | 0.0 | 0.0 | 0.00 | 0.03 | 0.03 | 97 | 1012.2 |
| 20260903040537 | 11 | 305 | 0.0 | 0.0 | 0.00 | 0.03 | 0.03 | 97 | 1012.3 |
| 20260903040037 | 11 | 305 | 0.0 | 0.0 | 0.00 | 0.03 | 0.03 | 97 | 1012.3 |
| 20260903035536 | 11 | 305 | 0.0 | 0.0 | 0.00 | 0.03 | 0.03 | 97 | 1012.4 |
| 20260903035035 | 11 | 305 | 0.0 | 0.0 | 0.00 | 0.03 | 0.03 | 97 | 1012.4 |
| 20260903034535 | 10 | 305 | 0.0 | 0.0 | 0.00 | 0.03 | 0.03 | 97 | 1012.5 |
| 20260903034035 | 10 | 305 | 0.0 | 0.0 | 0.00 | 0.03 | 0.03 | 97 | 1012.5 |
| 20260903033534 | 10 | 305 | 0.0 | 0.0 | 0.00 | 0.03 | 0.03 | 97 | 1012.5 |
| 20260903033033 | 10 | 305 | 0.0 | 0.0 | 0.00 | 0.03 | 0.03 | 97 | 1012.5 |
| 20260903032532 | 10 | 305 | 0.0 | 0.0 | 0.00 | 0.03 | 0.03 | 97 | 1012.6 |
| 20260903032035 | 10 | 305 | 0.0 | 0.0 | 0.00 | 0.03 | 0.03 | 97 | 1012.7 |
| 20260903031538 | 10 | 305 | 0.0 | 0.0 | 0.00 | 0.03 | 0.03 | 97 | 1012.6 |
| 20260903031029 | 10 | 305 | 0.0 | 0.0 | 0.00 | 0.03 | 0.03 | 97 | 1012.7 |
| 20260903030531 | 10 | 305 | 0.0 | 0.0 | 0.00 | 0.03 | 0.03 | 97 | 1012.7 |
| 20260903030030 | 10 | 305 | 0.0 | 0.0 | 0.00 | 0.03 | 0.03 | 96 | 1012.8 |
| 20260903025526 | 10 | 305 | 0.0 | 0.0 | 0.00 | 0.05 | 0.03 | 97 | 1012.8 |
| 20260903025025 | 10 | 305 | 0.0 | 0.0 | 0.00 | 0.05 | 0.03 | 97 | 1013.0 |
| 20260903024525 | 10 | 305 | 0.0 | 0.0 | 0.00 | 0.05 | 0.03 | 96 | 1013.0 |
| 20260903024024 | 9 | 305 | 0.0 | 0.0 | 0.00 | 0.05 | 0.03 | 96 | 1012.9 |
| 20260903023530 | 9 | 305 | 0.0 | 0.0 | 0.00 | 0.05 | 0.03 | 97 | 1013.0 |
| 20260903023022 | 9 | 305 | 0.0 | 0.0 | 0.00 | 0.05 | 0.03 | 96 | 1013.1 |
| 20260903022522 | 9 | 305 | 0.0 | 0.0 | 0.00 | 0.05 | 0.03 | 96 | 1013.1 |
| 20260903022021 | 8 | 305 | 0.0 | 0.0 | 0.00 | 0.05 | 0.03 | 96 | 1013.1 |
| 20260903021521 | 8 | 305 | 0.0 | 0.0 | 0.00 | 0.05 | 0.03 | 96 | 1013.1 |
| 20260903021020 | 8 | 305 | 0.0 | 0.0 | 0.00 | 0.05 | 0.03 | 96 | 1013.1 |
| 20260903020520 | 8 | 305 | 0.0 | 0.0 | 0.00 | 0.05 | 0.03 | 96 | 1013.1 |
| 20260903020034 | 8 | 305 | 0.0 | 0.0 | 0.00 | 0.05 | 0.03 | 96 | 1013.2 |
| 20260903015519 | 8 | 305 | 0.0 | 0.0 | 0.00 | 0.05 | 0.03 | 96 | 1013.3 |
| 20260903015017 | 8 | 305 | 0.0 | 0.0 | 0.00 | 0.05 | 0.03 | 96 | 1013.4 |
| 20260903014516 | 8 | 305 | 0.0 | 0.0 | 0.00 | 0.05 | 0.03 | 95 | 1013.5 |
| 20260903014017 | 8 | 305 | 0.0 | 0.0 | 0.03 | 0.05 | 0.03 | 95 | 1013.6 |
| 20260903013516 | 8 | 305 | 0.0 | 0.0 | 0.03 | 0.05 | 0.03 | 95 | 1013.6 |
| 20260903013018 | 8 | 305 | 0.0 | 0.0 | 0.03 | 0.05 | 0.03 | 96 | 1013.7 |
| 20260903012515 | 8 | 305 | 0.0 | 0.0 | 0.03 | 0.05 | 0.03 | 96 | 1013.7 |
| 20260903012014 | 8 | 305 | 0.0 | 0.0 | 0.03 | 0.05 | 0.03 | 96 | 1013.7 |
| 20260903011514 | 8 | 305 | 0.0 | 0.0 | 0.03 | 0.05 | 0.03 | 95 | 1013.7 |
| 20260903011015 | 8 | 305 | 0.0 | 0.0 | 0.03 | 0.05 | 0.03 | 95 | 1013.8 |
| 20260903010512 | 8 | 305 | 0.0 | 0.0 | 0.03 | 0.05 | 0.03 | 95 | 1013.8 |
| 20260903010013 | 8 | 305 | 0.0 | 0.0 | 0.03 | 0.05 | 0.03 | 95 | 1013.9 |
| 20260903005511 | 8 | 305 | 0.0 | 0.0 | 0.03 | 0.05 | 0.03 | 95 | 1013.8 |
| 20260903005012 | 8 | 305 | 0.0 | 0.0 | 0.03 | 0.05 | 0.03 | 95 | 1013.9 |
| 20260903004511 | 8 | 305 | 0.0 | 0.0 | 0.03 | 0.05 | 0.03 | 95 | 1013.9 |
| 20260903004011 | 8 | 305 | 0.0 | 0.0 | 0.00 | 0.03 | 0.00 | 95 | 1013.9 |
| 20260903003511 | 8 | 305 | 0.0 | 0.0 | 0.00 | 0.03 | 0.00 | 95 | 1013.9 |
| 20260903003010 | 8 | 305 | 0.0 | 0.0 | 0.00 | 0.03 | 0.00 | 95 | 1013.9 |
| 20260903002514 | 8 | 305 | 0.0 | 0.0 | 0.00 | 0.03 | 0.00 | 95 | 1014.0 |
| 20260903002012 | 8 | 305 | 0.0 | 0.0 | 0.00 | 0.03 | 0.00 | 95 | 1014.0 |
| 20260903001509 | 8 | 305 | 0.0 | 0.0 | 0.00 | 0.03 | 0.00 | 95 | 1013.9 |
| 20260903001009 | 8 | 305 | 0.0 | 0.0 | 0.00 | 0.03 | 0.00 | 95 | 1013.9 |
| 20260903000508 | 8 | 305 | 0.0 | 0.0 | 0.00 | 0.03 | 0.00 | 95 | 1013.9 |
| 20260903000007 | 8 | 305 | 0.0 | 0.0 | 0.00 | 0.03 | 0.00 | 95 | 1013.9 |
| 20260902235511 | 8 | 305 | 0.0 | 0.0 | 0.00 | 0.03 | 0.00 | 95 | 1014.0 |
| 20260902235007 | 8 | 305 | 0.0 | 0.0 | 0.00 | 0.03 | 0.00 | 95 | 1014.0 |
| 20260902234505 | 8 | 305 | 0.0 | 0.0 | 0.00 | 0.03 | 0.00 | 94 | 1014.0 |
| 20260902234006 | 8 | 305 | 0.0 | 0.0 | 0.00 | 0.03 | 0.00 | 94 | 1014.1 |
| 20260902233504 | 8 | 305 | 0.0 | 0.0 | 0.00 | 0.03 | 0.00 | 94 | 1014.1 |
| 20260902233009 | 8 | 305 | 0.0 | 0.0 | 0.00 | 0.03 | 0.00 | 94 | 1014.1 |
| 20260902232503 | 8 | 305 | 0.0 | 0.0 | 0.00 | 0.03 | 0.00 | 94 | 1014.2 |
| 20260902232003 | 9 | 305 | 0.0 | 0.0 | 0.00 | 0.03 | 0.00 | 94 | 1014.2 |
| 20260902231503 | 9 | 305 | 0.0 | 0.0 | 0.00 | 0.03 | 0.00 | 94 | 1014.2 |